Regional Weather Roundup
Issued by NWS

Home | Current Version | Previous Version | Text Only | Print | Product List | Glossary Off
Versions: 1 2 3 4 5 6 7 8 9 10 11 12 13 14 15 16 17 18 19 20 21 22 23 24 25 26 27 28 29 30 31 32 33 34 35 36 37 38 39 40 41 42 43 44 45 46 47 48 49 50

000
ASUS43 KLMK 221410
RWRKY
KENTUCKY REGIONAL WEATHER ROUNDUP
NATIONAL WEATHER SERVICE LOUISVILLE KY
1000 AM EDT WED OCT 22 2014

NOTE "FAIR" INDICATES FEW OR NO CLOUDS BELOW 12,000 FEET
WITH NO SIGNIFICANT WEATHER AND/OR OBSTRUCTIONS TO VISIBILITY.

KYZ001>023-026-027-061>063-070>075-221500-
WESTERN AND SOUTH CENTRAL KENTUCKY

CITY           SKY/WX    TMP DP  RH WIND       PRES   REMARKS
PADUCAH        SUNNY     49  45  86 NE8       30.29R
HENDERSON      SUNNY    N/A N/A N/A NE6       30.31R
OWENSBORO      SUNNY     49  42  76 E8        30.31R
HOPKINSVILLE   SUNNY     49  47  93 NE9       30.28R
BOWLING GREEN  SUNNY     49  40  71 NE8       30.29R
GLASGOW        SUNNY     48  39  70 NE5       30.27R
$$

KYZ024-025-028>034-038-045-046-053-221500-
NORTH CENTRAL KENTUCKY

CITY           SKY/WX    TMP DP  RH WIND       PRES   REMARKS
LOUISVILLE/SDF MOSUNNY   50  40  68 N8        30.29R
LOUISVILLE/LOU SUNNY     49  39  68 N5        30.30R
FORT KNOX      SUNNY     47  39  74 N7        30.27R
$$

KYZ035>037-039>044-047>052-055>060-089>105-221500-
NORTHEAST KENTUCKY

CITY           SKY/WX    TMP DP  RH WIND       PRES   REMARKS
LEXINGTON      PTSUNNY   49  40  71 NE10      30.27R
COVINGTON      MOSUNNY   47  38  71 N9        30.29R
FRANKFORT      SUNNY     48  39  71 N7        30.27R
$$

KYZ054-064>069-076>088-106>120-221500-
SOUTHEAST KENTUCKY

CITY           SKY/WX    TMP DP  RH WIND       PRES   REMARKS
JACKSON        CLOUDY    44  40  85 CALM      30.24R
LONDON         PTSUNNY   47  39  74 N8        30.25R
SOMERSET       SUNNY     45  37  76 NE7       30.27S
MIDDLESBORO    CLOUDY    47  38  71 N6        30.24R
MONTICELLO     MOSUNNY   48  42  80 NE7       30.28R
$$




USA.gov is the U.S. government's official web portal to all federal, state and local government web resources and services.